Location: Chircca
(13.7944°S, 72.0608°W)
Time: 06:11:03
(UTC+00:00)

CZ-4B R/B - Pass Details

Date: 14 July 2020
Orbit: 487 x 651 km, 97.9° (Epoch: 14 August)

Event Time Altitude Azimuth Distance (km) Brightness Sun altitude
Rises 09:42:52 0° 355° (N) 2,907 6.7 -21.4°
Reaches altitude 10° 09:45:10 10° 347° (NNW) 2,021 5.7 -20.8°
Enters shadow 09:48:42 35° 297° (WNW) 1,046 3.8 -20.0°
